Date String (YYYY-MM-DD hh:mm:ss) UTC,Instrument flags,absolute air pressure of the measurement (hPa),sample flow rate (lpm),inlet stack bypass flow (lpm),air temperature of the measurement (°C),ambient temperature measured by the external sensor (°C),aerosol sample conditioner tube jacket temperature (°C),OPC LED temperature (°C),internal box temperature (°C),relative humidity of the measurement (%),span deviation,mass concentration of particles derived from Lorenz-Mie calculation of OPC scattering (μg/m³),mass concentration of particles derived from Lorenz-Mie calculation of OPC scattering (μg/m³),mass concentration of particles derived from Lorenz-Mie calculation of OPC scattering (μg/m³)
DateTimeUTC,F1_M11,P_M11,Q1_M11,Q2_M11,T1_M11,T2_M11,T3_M11,T4_M11,T5_M11,U1_M11,ZSPAN_M11,X2_M11,X0_M11,X1_M11
2024-05-05 22:00:00,SystemResetWarning,0815.6,5.01,000.00,024.3,022.5,000.0,032.9,025.7,027.5,0000.0,0004.89,0017.39,0003.53
2024-05-05 22:01:00,SystemResetWarning,0815.6,5.01,000.00,024.4,022.9,000.0,032.8,026.0,027.4,0000.0,0004.96,0018.21,0003.56
2024-05-05 22:02:00,SystemResetWarning,0815.6,5.00,000.00,024.5,023.2,000.0,032.8,026.2,026.5,0000.0,0005.01,0017.83,0003.57
2024-05-05 22:03:00,SystemResetWarning,0815.7,5.00,000.00,024.5,023.5,000.0,032.8,026.4,026.2,0000.0,0005.04,0017.45,0003.59
2024-05-05 22:04:00,SystemResetWarning,0815.6,5.00,000.00,024.6,023.8,000.0,032.8,026.5,026.8,0000.0,0005.09,0018.80,0003.58
2024-05-05 22:05:00,SystemResetWarning,0815.6,5.00,000.00,024.7,024.0,000.0,032.8,026.6,026.9,0000.0,0005.11,0018.00,0003.58
2024-05-05 22:06:00,SystemResetWarning,0815.6,5.00,000.00,024.8,024.2,000.0,032.8,026.7,026.8,0000.0,0005.15,0018.18,0003.60
2024-05-05 22:07:00,SystemResetWarning,0815.6,5.00,000.00,024.9,024.4,000.0,032.8,026.8,026.8,0000.0,0005.16,0018.79,0003.59
2024-05-05 22:08:00,SystemResetWarning,0815.6,4.99,000.00,025.0,024.5,000.0,032.9,026.9,026.3,0000.0,0005.16,0020.62,0003.60
2024-05-05 22:09:00,SystemResetWarning,0815.6,4.99,000.00,024.9,023.7,000.0,033.0,026.4,027.2,0000.0,0005.14,0022.13,0003.58
2024-05-05 22:10:00,SystemResetWarning,0815.4,5.00,000.00,024.5,021.7,000.0,033.0,025.2,026.3,0000.0,0005.09,0022.83,0003.57
2024-05-05 22:11:00,SystemResetWarning,0815.3,5.02,000.00,024.2,021.4,000.0,033.0,025.0,027.5,0000.0,0005.13,0023.05,0003.57
2024-05-05 22:12:00,SystemResetWarning,0815.3,4.98,000.00,024.2,021.8,000.0,032.9,025.2,028.0,0000.0,0005.09,0022.99,0003.55
2024-05-05 22:13:00,SystemResetWarning,0815.3,5.00,000.00,024.2,022.2,000.0,032.8,025.5,026.9,0000.0,0005.10,0023.62,0003.54
2024-05-05 22:14:00,SystemResetWarning,0815.3,5.01,000.00,024.2,022.6,000.0,032.7,025.8,028.2,0000.0,0005.10,0025.23,0003.53
2024-05-05 22:15:00,SystemResetWarning,0815.3,5.00,000.00,024.3,023.0,000.0,032.7,026.0,027.5,0000.0,0005.09,0023.95,0003.52
2024-05-05 22:16:00,SystemResetWarning,0815.3,5.00,000.00,024.4,023.3,000.0,032.7,026.2,027.5,0000.0,0005.11,0023.98,0003.52
2024-05-05 22:17:00,SystemResetWarning,0815.3,5.00,000.00,024.5,023.6,000.0,032.6,026.4,027.3,0000.0,0005.11,0023.97,0003.52
2024-05-05 22:18:00,SystemResetWarning,0815.2,4.99,000.00,024.6,023.9,000.0,032.7,026.5,027.3,0000.0,0005.11,0022.04,0003.52
2024-05-05 22:19:00,SystemResetWarning,0815.2,5.00,000.00,024.7,024.1,000.0,032.7,026.6,026.8,0000.0,0005.13,0020.72,0003.52
2024-05-05 22:20:00,SystemResetWarning,0815.2,4.99,000.00,024.8,024.3,000.0,032.7,026.7,026.3,0000.0,0005.16,0019.93,0003.53
2024-05-05 22:21:00,SystemResetWarning,0815.1,5.00,000.00,024.9,024.4,000.0,032.7,026.8,026.3,0000.0,0005.21,0019.41,0003.53
2024-05-05 22:22:00,SystemResetWarning,0815.1,5.02,000.00,025.0,024.5,000.0,032.8,026.9,027.0,0000.0,0005.21,0020.56,0003.53
2024-05-05 22:23:00,SystemResetWarning,0815.1,4.99,000.00,024.9,023.3,000.0,032.9,026.2,026.5,0000.0,0005.18,0021.02,0003.53
2024-05-05 22:24:00,SystemResetWarning,0814.9,5.00,000.00,024.5,021.5,000.0,033.0,025.1,027.3,0000.0,0005.08,0020.24,0003.53
2024-05-05 22:25:00,SystemResetWarning,0814.9,5.02,000.00,024.2,021.4,000.0,032.9,025.0,027.8,0000.0,0005.05,0020.14,0003.51
2024-05-05 22:26:00,SystemResetWarning,0814.9,4.99,000.00,024.1,021.8,000.0,032.8,025.2,027.9,0000.0,0005.09,0020.78,0003.51
2024-05-05 22:27:00,SystemResetWarning,0814.9,5.00,000.00,024.2,022.2,000.0,032.7,025.5,028.1,0000.0,0005.02,0021.19,0003.51
2024-05-05 22:28:00,SystemResetWarning,0814.9,5.00,000.00,024.2,022.6,000.0,032.7,025.8,027.7,0000.0,0004.97,0021.83,0003.51
2024-05-05 22:29:00,SystemResetWarning,0814.9,5.01,000.00,024.3,023.0,000.0,032.6,026.0,027.7,0000.0,0004.98,0022.54,0003.51
2024-05-05 22:30:00,SystemResetWarning,0814.9,5.00,000.00,024.4,023.3,000.0,032.6,026.2,026.9,0000.0,0004.97,0023.09,0003.50
2024-05-05 22:31:00,SystemResetWarning,0814.9,5.00,000.00,024.5,023.6,000.0,032.6,026.3,026.5,0000.0,0004.97,0022.37,0003.51
2024-05-05 22:32:00,SystemResetWarning,0814.9,4.99,000.00,024.6,023.8,000.0,032.6,026.5,026.0,0000.0,0004.96,0022.10,0003.51
2024-05-05 22:33:00,SystemResetWarning,0814.9,5.00,000.00,024.6,024.1,000.0,032.6,026.6,026.0,0000.0,0004.95,0021.32,0003.52
2024-05-05 22:34:00,SystemResetWarning,0814.9,5.00,000.00,024.7,024.3,000.0,032.7,026.7,025.8,0000.0,0004.96,0020.50,0003.52
2024-05-05 22:35:00,SystemResetWarning,0814.9,5.00,000.00,024.8,024.4,000.0,032.7,026.8,025.3,0000.0,0005.05,0020.30,0003.53
2024-05-05 22:36:00,SystemResetWarning,0814.9,5.01,000.00,024.9,024.6,000.0,032.8,026.9,025.0,0000.0,0005.09,0018.80,0003.54
2024-05-05 22:37:00,SystemResetWarning,0814.9,4.99,000.00,025.0,024.2,000.0,032.9,026.6,025.5,0000.0,0005.07,0019.93,0003.57
2024-05-05 22:38:00,SystemResetWarning,0814.8,4.99,000.00,024.7,022.2,000.0,032.9,025.5,026.1,0000.0,0005.14,0020.30,0003.58
2024-05-05 22:39:00,SystemResetWarning,0814.8,5.02,000.00,024.3,021.3,000.0,033.0,025.0,026.3,0000.0,0005.18,0019.94,0003.59
2024-05-05 22:40:00,SystemResetWarning,0814.9,4.98,000.00,024.2,021.7,000.0,032.9,025.2,026.8,0000.0,0005.22,0020.46,0003.59
2024-05-05 22:41:00,SystemResetWarning,0814.9,4.99,000.00,024.2,022.1,000.0,032.8,025.5,026.7,0000.0,0005.22,0021.07,0003.61
2024-05-05 22:42:00,SystemResetWarning,0815.0,5.00,000.00,024.2,022.5,000.0,032.7,025.7,026.4,0000.0,0005.25,0021.82,0003.62
2024-05-05 22:43:00,SystemResetWarning,0814.9,5.01,000.00,024.3,022.9,000.0,032.6,026.0,026.6,0000.0,0005.24,0023.67,0003.64
2024-05-05 22:44:00,SystemResetWarning,0814.9,4.99,000.00,024.4,023.2,000.0,032.6,026.2,026.1,0000.0,0005.23,0023.91,0003.65
2024-05-05 22:45:00,SystemResetWarning,0815.0,5.00,000.00,024.5,023.5,000.0,032.6,026.3,025.6,0000.0,0005.26,0023.60,0003.67
2024-05-05 22:46:00,SystemResetWarning,0815.0,4.99,000.00,024.6,023.8,000.0,032.6,026.5,025.1,0000.0,0005.28,0025.16,0003.71
2024-05-05 22:47:00,SystemResetWarning,0815.0,5.00,000.00,024.6,024.0,000.0,032.6,026.6,025.1,0000.0,0005.36,0025.78,0003.75
2024-05-05 22:48:00,SystemResetWarning,0814.9,5.00,000.00,024.7,024.2,000.0,032.7,026.7,025.9,0000.0,0005.42,0025.45,0003.77
2024-05-05 22:49:00,SystemResetWarning,0815.0,5.00,000.00,024.8,024.4,000.0,032.7,026.8,025.0,0000.0,0005.40,0024.37,0003.77
2024-05-05 22:50:00,SystemResetWarning,0814.9,5.01,000.00,024.9,024.4,000.0,032.8,026.8,024.6,0000.0,0005.41,0024.17,0003.79
2024-05-05 22:51:00,SystemResetWarning,0814.9,4.99,000.00,024.7,022.7,000.0,032.9,025.9,024.8,0000.0,0005.43,0022.85,0003.83
2024-05-05 22:52:00,SystemResetWarning,0814.9,5.01,000.00,024.3,021.2,000.0,032.9,025.0,025.1,0000.0,0005.45,0022.56,0003.85
2024-05-05 22:53:00,SystemResetWarning,0814.9,5.02,000.00,024.1,021.4,000.0,032.9,025.0,025.8,0000.0,0005.48,0022.63,0003.86
2024-05-05 22:54:00,SystemResetWarning,0814.9,4.99,000.00,024.1,021.9,000.0,032.7,025.3,026.6,0000.0,0005.55,0021.24,0003.88
2024-05-05 22:55:00,SystemResetWarning,0814.9,4.99,000.00,024.1,022.3,000.0,032.6,025.5,026.2,0000.0,0005.58,0021.10,0003.90
2024-05-05 22:56:00,SystemResetWarning,0814.9,5.00,000.00,024.2,022.7,000.0,032.6,025.8,025.7,0000.0,0005.59,0022.30,0003.92
2024-05-05 22:57:00,SystemResetWarning,0814.9,5.01,000.00,024.3,023.1,000.0,032.6,026.0,025.8,0000.0,0005.62,0021.12,0003.92
2024-05-05 22:58:00,SystemResetWarning,0814.9,5.01,000.00,024.4,023.4,000.0,032.5,026.2,025.9,0000.0,0005.58,0021.13,0003.91
2024-05-05 22:59:00,SystemResetWarning,0814.9,5.00,000.00,024.5,023.7,000.0,032.6,026.4,025.0,0000.0,0005.50,0021.58,0003.89
